Location: Unspecified
(0.0000°N, 0.0000°E)
Time: 06:38:15
(UTC+00:00)

Tiangong - Pass Details

Date: 28 November 2022
Orbit: 385 x 393 km, 41.5° (Epoch: 29 November)

Event Time Altitude Azimuth Distance (km) Brightness Sun altitude
Exits shadow 04:10:35 19° 183° (S) 989 0.1 -22.6°
Drops below altitude 10° 04:11:58 10° 164° (SSE) 1,418 1.2 -22.2°
Sets 04:14:14 0° 151° (SSE) 2,274 2.6 -21.7°
